| time (UTC) | temp C | wind direction | speed KPH | gust KPH | rain 1hr cm | rain 24hr cm | rain mn cm | humidity % | barometer mb |
| 20260503194545 | 23 | 41 | 4.8 | 9.7 | 0.00 | 0.00 | 0.00 | 59 | 1013.6 |
| 20260503193057 | 23 | 28 | 3.2 | 16.1 | 0.00 | 0.00 | 0.00 | 63 | 1013.8 |
| 20260503191545 | 22 | 57 | 4.8 | 11.3 | 0.00 | 0.00 | 0.00 | 64 | 1014.0 |
| 20260503190053 | 21 | 19 | 1.6 | 11.3 | 0.00 | 0.00 | 0.00 | 67 | 1014.2 |
| 20260503184541 | 20 | 30 | 4.8 | 12.9 | 0.00 | 0.00 | 0.00 | 69 | 1014.3 |
| 20260503183055 | 19 | 17 | 8.0 | 14.5 | 0.00 | 0.00 | 0.00 | 68 | 1014.4 |
| 20260503181540 | 18 | 5 | 3.2 | 12.9 | 0.00 | 0.00 | 0.00 | 76 | 1014.5 |
| 20260503180051 | 17 | 30 | 1.6 | 8.0 | 0.00 | 0.00 | 0.00 | 77 | 1014.5 |
| 20260503174536 | 17 | 0 | 3.2 | 11.3 | 0.00 | 0.00 | 0.00 | 79 | 1014.7 |
| 20260503173103 | 16 | 52 | 1.6 | 8.0 | 0.00 | 0.00 | 0.00 | 80 | 1014.9 |
| 20260503171549 | 15 | 39 | 4.8 | 12.9 | 0.00 | 0.00 | 0.00 | 84 | 1015.0 |
| 20260503081546 | 12 | 0 | 0.0 | 0.0 | 0.00 | 0.00 | 0.00 | 84 | 1015.3 |
| 20260503071547 | 13 | 0 | 0.0 | 0.0 | 0.00 | 0.00 | 0.00 | 81 | 1015.2 |
| 20260503054541 | 15 | 0 | 0.0 | 0.0 | 0.00 | 0.00 | 0.00 | 76 | 1015.1 |
| 20260503053045 | 16 | 0 | 0.0 | 0.0 | 0.00 | 0.00 | 0.00 | 75 | 1015.3 |
| 20260503051541 | 16 | 0 | 0.0 | 0.0 | 0.00 | 0.00 | 0.00 | 74 | 1015.2 |
| 20260503050041 | 16 | 0 | 0.0 | 0.0 | 0.00 | 0.00 | 0.00 | 73 | 1015.1 |
| 20260503044541 | 16 | 0 | 0.0 | 0.0 | 0.00 | 0.00 | 0.00 | 71 | 1015.0 |
| 20260503043040 | 17 | 0 | 0.0 | 0.0 | 0.00 | 0.00 | 0.00 | 70 | 1014.9 |
| 20260503041540 | 17 | 0 | 0.0 | 0.0 | 0.00 | 0.00 | 0.00 | 68 | 1014.8 |
| 20260503040041 | 18 | 298 | 0.0 | 4.8 | 0.00 | 0.00 | 0.00 | 66 | 1014.6 |
| 20260503034541 | 18 | 0 | 0.0 | 3.2 | 0.00 | 0.00 | 0.00 | 65 | 1014.4 |
| 20260503033045 | 18 | 0 | 0.0 | 0.0 | 0.00 | 0.00 | 0.00 | 65 | 1014.2 |
| 20260503031540 | 19 | 0 | 0.0 | 1.6 | 0.00 | 0.00 | 0.00 | 64 | 1013.9 |
| 20260503030042 | 20 | 0 | 0.0 | 3.2 | 0.00 | 0.00 | 0.00 | 64 | 1013.8 |
| 20260503024547 | 20 | 0 | 0.0 | 4.8 | 0.00 | 0.00 | 0.00 | 65 | 1013.8 |
| 20260503023042 | 20 | 14 | 1.6 | 6.4 | 0.00 | 0.00 | 0.00 | 65 | 1013.8 |
| 20260503021547 | 21 | 45 | 1.6 | 12.9 | 0.00 | 0.00 | 0.00 | 64 | 1013.7 |
| 20260503020050 | 21 | 44 | 1.6 | 9.7 | 0.00 | 0.00 | 0.00 | 64 | 1013.8 |
| 20260503014606 | 21 | 49 | 0.0 | 8.0 | 0.00 | 0.00 | 0.00 | 66 | 1013.7 |
| 20260503013039 | 21 | 44 | 0.0 | 17.7 | 0.00 | 0.00 | 0.00 | 67 | 1013.7 |
| 20260503011555 | 21 | 0 | 3.2 | 12.9 | 0.00 | 0.00 | 0.00 | 65 | 1013.7 |
| 20260503010050 | 21 | 29 | 4.8 | 17.7 | 0.00 | 0.00 | 0.00 | 67 | 1013.7 |
| 20260503004555 | 22 | 306 | 3.2 | 16.1 | 0.00 | 0.00 | 0.00 | 65 | 1013.9 |
| 20260503003040 | 22 | 331 | 3.2 | 14.5 | 0.00 | 0.00 | 0.00 | 66 | 1014.0 |
| 20260503001540 | 22 | 103 | 3.2 | 16.1 | 0.00 | 0.00 | 0.00 | 67 | 1013.8 |
| 20260503000042 | 22 | 24 | 4.8 | 14.5 | 0.00 | 0.00 | 0.00 | 67 | 1013.9 |
| 20260502234543 | 22 | 13 | 6.4 | 16.1 | 0.00 | 0.00 | 0.00 | 66 | 1014.0 |
| 20260502233045 | 22 | 311 | 1.6 | 16.1 | 0.00 | 0.00 | 0.00 | 66 | 1014.4 |
| 20260502231541 | 22 | 298 | 3.2 | 9.7 | 0.00 | 0.00 | 0.00 | 61 | 1014.5 |
| 20260502230042 | 22 | 309 | 3.2 | 14.5 | 0.00 | 0.00 | 0.00 | 66 | 1014.6 |
| 20260502224540 | 22 | 33 | 1.6 | 12.9 | 0.00 | 0.00 | 0.00 | 68 | 1014.9 |
| 20260502223042 | 22 | 0 | 8.0 | 19.3 | 0.00 | 0.00 | 0.00 | 65 | 1015.1 |
| 20260502221543 | 22 | 360 | 4.8 | 17.7 | 0.00 | 0.00 | 0.00 | 67 | 1015.1 |
| 20260502220043 | 22 | 352 | 8.0 | 19.3 | 0.00 | 0.00 | 0.00 | 68 | 1015.4 |
| 20260502214541 | 22 | 341 | 3.2 | 16.1 | 0.00 | 0.00 | 0.00 | 67 | 1015.4 |
| 20260502213041 | 22 | 267 | 1.6 | 16.1 | 0.00 | 0.00 | 0.00 | 67 | 1015.5 |
| 20260502211543 | 22 | 22 | 4.8 | 14.5 | 0.00 | 0.00 | 0.00 | 68 | 1015.7 |
| 20260502210045 | 22 | 267 | 4.8 | 16.1 | 0.00 | 0.00 | 0.00 | 66 | 1015.8 |
| 20260502204543 | 22 | 30 | 4.8 | 16.1 | 0.00 | 0.00 | 0.00 | 66 | 1015.9 |
| 20260502203041 | 21 | 44 | 6.4 | 16.1 | 0.00 | 0.00 | 0.00 | 67 | 1016.2 |
| 20260502201540 | 21 | 11 | 4.8 | 12.9 | 0.00 | 0.00 | 0.00 | 70 | 1016.4 |
| 20260502200041 | 20 | 334 | 9.7 | 19.3 | 0.00 | 0.00 | 0.00 | 73 | 1016.6 |